Starlink 32025

operational
NORAD ID: 60138 Int'l Des: 2024-120 Owner: SPXS Country: US Constellation: starlink
LEOCIRCULAR

关于 Starlink 32025

正在加载描述...

实时位置

正在加载3D地球...

即将过境

高度历史

Altitude vs Time

uPlot chart will show altitude changes over time

两行轨道根数

1 60138U 24120D 25259.12869694 .00000532 00000-0 30077-4 0 9996
2 60138 53.1613 50.4888 0000983 91.6345 268.4768 15.30190115 69653
Epoch: Sep 16, 2025 • Age: 9 hours

当前状态

高度 478.0 km
速度 7.63 km/s
星下点 -9.72°S, 64.03°E
发射日期 Jun 27, 2024
运行时间 1.2 years
类型 internet

技术详情

分类 Payload
质量 730.00 kg
干质量 700.00 kg
总质量 730.00 kg
长度 0.30 m
直径 4.10 m
跨度 29.00 m
形状 Box + pan
制造商 SPXS
平台类型 Starlink V2M
阶段状态 In Orbit
所有者/国家 SPXS/US

大型星座

Loading constellations...